Location: Ahstedt
(52.2048°N, 10.1060°E)
Time: 23:14:37
(UTC+00:00)

Cosmos 540 Rocket - Pass Details

Date: 16 April 2026
Orbit: 734 x 748 km, 74.1° (Epoch: 15 May)

Event Time Altitude Azimuth Distance (km) Brightness Sun altitude
Exits shadow 02:06:59 - 160° (SSE) 2,638 6.0 -18.1°
Reaches altitude 10° 02:08:10 10° 153° (SSE) 2,255 5.7 -18.0°
Maximum altitude 02:12:15 25° 99° (E) 1,481 5.4 -17.5°
Drops below altitude 10° 02:16:24 10° 46° (NE) 2,274 7.3 -17.1°
Sets 02:19:06 0° 33° (NNE) 3,204 8.3 -16.8°
